#timestamp,LO_Frequency,Hit,StdDev 
1696496415.2,286047001.1,N
1696496435.1,286046998.9,N
1696496436.0,286046998.9,N
1696496455.8,286046995.1,N
1696496475.7,286046993.8,N
1696496495.5,286046994.4,N
1696496515.3,286046993.3,N
1696496535.2,286046993.7,N
1696496555.0,286046993.2,N
1696496555.9,286046993.2,N
1696496575.7,286046988.9,Y
1696496595.6,286046992.5,P
1696496615.4,286046990.9,P
1696496635.3,286046987.1,P
1696496655.1,286046987.5,Y
1696496656.0,286046987.5,P
1696496675.8,286046996.5,N
1696496695.7,286046998.6,N
1696496715.5,286047003.8,N
1696496735.3,286047004.4,N
1696496755.2,286046998.9,N
1696496775.0,286046997.2,N
1696496775.9,286046997.2,N
1696496795.8,286046993.6,N
1696496815.6,286046992.8,N
1696496835.4,286046989.9,N
1696496855.3,286046988.4,N
1696496875.1,286046986.4,N
1696496895.8,286046985.1,N
1696496915.7,286046984.9,N
1696496935.5,286046984.7,N
1696496955.4,286046986.8,N
1696496975.2,286046989.9,N
1696496995.0,286046989.0,N
1696496995.9,286046989.0,N
1696497015.8,286046991.6,N
1696497035.6,286046989.5,N
1696497055.4,286046984.6,N
1696497075.3,286046983.6,N
1696497095.1,286046979.1,Y
1696497115.9,286046985.7,P
1696497135.7,286046984.3,P
1696497155.5,286046984.2,P
1696497175.4,286046983.8,Y
1696497195.2,286046995.0,P
1696497215.1,286046993.7,N
1696497216.0,286046993.7,N
1696497235.8,286046994.4,N
1696497255.6,286046992.3,N
1696497275.5,286046992.2,N
1696497295.3,286046993.2,N
1696497315.1,286046989.9,Y
1696497335.9,286046995.7,P
1696497355.7,286046993.3,P
1696497375.6,286046996.3,N
1696497395.4,286046990.1,Y
1696497415.2,286046995.2,P
1696497435.1,286046999.0,N
1696497436.0,286046999.0,N
1696497455.8,286047000.1,N
1696497475.6,286046997.1,N
1696497495.5,286046995.5,N
1696497515.3,286046996.1,N
1696497535.2,286046993.3,Y
1696497555.9,286047000.3,P
1696497575.7,286047000.6,N
1696497595.6,286046997.1,N
1696497645.4,286046997.6,E
1696497655.4,286046997.1,N
1696497675.2,286046995.6,P
1696497695.0,286046996.1,P
1696497695.9,286046996.1,Y
1696497715.8,286046997.2,P
1696497735.6,286046996.9,P
1696497755.5,286046997.8,P
1696497775.3,286046999.4,N
1696497795.1,286046999.1,N
1696497815.9,286046996.2,Y
1696497835.7,286046994.6,P
1696497855.5,286046993.9,P
1696497875.4,286046994.4,P
1696497895.2,286046990.6,Y
1696497915.1,286046994.9,P
1696497916.0,286046994.9,P
1696497935.8,286046997.5,P
1696497955.6,286046995.8,Y
1696497975.5,286046998.3,P
1696497995.3,286046999.0,N
1696498015.1,286046995.4,P
1696498035.9,286046996.4,N
1696498055.7,286046994.2,Y
1696498075.6,286046997.1,P
1696498095.4,286047002.3,P
1696498115.2,286047000.9,N
1696498135.1,286047000.8,N
1696498136.0,286047000.8,N
1696498155.8,286047000.3,N
1696498175.6,286046998.6,N
1696498195.5,286046996.8,N
1696498215.3,286046998.8,N
1696498235.2,286047000.6,N
1696498255.9,286046999.9,N
1696498275.7,286046998.7,N
1696498295.6,286046995.4,N
1696498315.4,286046993.3,Y
1696498335.2,286046994.0,P
1696498355.1,286046994.7,N
1696498356.0,286046994.7,N
1696498375.8,286046994.1,N
1696498395.7,286046990.7,Y
1696498415.5,286046993.7,P
1696498435.3,286046995.7,P
1696498455.2,286046995.0,P
1696498475.0,286046997.8,N
1696498475.9,286046997.8,N
1696498495.8,286046999.3,N
1696498515.6,286046993.8,Y
1696498535.4,286046997.7,P
1696498555.3,286047002.3,P
1696498575.1,286047004.3,N
1696498595.8,286047000.6,N
1696498615.7,286046999.4,N
1696498635.5,286046996.9,N
1696498655.4,286046996.8,N
1696498675.2,286046996.9,N
1696498695.0,286046998.7,N
1696498695.9,286046998.7,N
1696498715.8,286047002.1,N
1696498735.6,286046996.8,N
1696498755.4,286046999.6,N
1696498775.3,286046995.5,N
1696498795.1,286046994.7,N
1696498815.9,286046995.2,N
1696498835.7,286047000.7,N
1696498855.5,286047002.6,N
1696498875.4,286047000.1,N
1696498895.2,286046996.8,N
1696498915.0,286046997.2,N
1696498915.9,286046997.2,N
1696498935.8,286046998.0,N
1696498955.6,286046997.5,N
1696498975.4,286046997.5,N
1696498995.3,286046994.3,N
1696499015.1,286046990.5,Y
1696499035.9,286046993.1,P
1696499055.7,286046992.8,N
1696499075.5,286046991.4,P
1696499095.4,286046990.3,Y
1696499115.2,286046995.2,P
1696499135.1,286046994.9,P
1696499136.0,286046994.9,P
1696499155.8,286046999.0,N
1696499175.6,286046998.2,N
1696499195.5,286047002.5,N
1696499215.3,286047001.7,N
1696499235.1,286046998.1,N
1696499255.9,286046995.7,N
1696499275.7,286046992.0,N
1696499295.6,286046990.6,Y
1696499315.4,286046991.9,P
1696499335.2,286046992.0,P
1696499355.1,286046995.2,N
1696499356.0,286046995.2,N
1696499375.8,286046999.5,N
1696499395.6,286046996.5,N
1696499415.5,286046999.3,N
1696499435.3,286046997.2,N
1696499455.2,286046999.4,N
1696499475.9,286047002.2,N
1696499495.7,286047003.7,N
1696499515.6,286047001.5,N
1696499535.4,286047004.0,N
1696499555.2,286047007.0,N
1696499575.1,286047006.5,N
1696499576.0,286047006.5,N
1696499595.8,286047006.9,N
1696499615.7,286047007.7,N
1696499635.5,286047009.3,N
1696499655.3,286047009.4,N
1696499675.2,286047006.9,N
1696499695.9,286047002.3,N
1696499715.7,286046997.1,N
1696499735.6,286046991.7,N
1696499755.4,286046992.4,N
1696499775.2,286046995.9,N
1696499795.1,286046998.2,N
1696499796.0,286046998.2,N
1696499815.8,286046998.5,N
1696499835.7,286047001.2,N
1696499855.5,286046995.9,N
1696499875.3,286046994.0,N
1696499895.2,286046993.3,N
1696499915.0,286046990.5,N
1696499915.9,286046990.5,N
1696499935.7,286046991.3,N
1696499955.6,286046988.7,N
1696499975.4,286046991.3,N
1696499995.3,286046990.8,N
